Tracking 31027 objects as of 19-Jul-2025
HD Live streaming from Space Station
objects crossing your sky now

PSLV R/B

Track PSLV R/B now!
10-day predictions


NORAD ID: 38757
Int'l Code: 2012-047C
Perigee: 624.7 km
Apogee: 632.5 km
Inclination: 98.3 °
Period: 97.1 minutes
Semi major axis: 6999 km
RCS: 5.395 m2 (large)
Launch date: September 9, 2012
Source: India (IND)
Launch site: SRIHARIKOTA (SRI)

Note: This is a ROCKET BODY
Your satellite tracking list
IRIDIUM 33 DEB
Track 1 satellite(s)




NASA's NSSDC Master Catalog

Two Line Element Set (TLE):
1 38757U 12047C   25199.76009541  .00000697  00000-0  94045-4 0  9990
2 38757  98.3219  25.9339 0005524   9.8026 350.3293 14.82494377693468
Source of the keplerian elements: AFSPC